This is the latest recevied weather packets stored in our database for station/object E20ZNR-1. If no packets are shown the sender has not sent any weather packets the latest 10 day(s).
| Time | Temp. | Humidity | Pressure | Rain* | Wind** | Luminosity | Snow |
|---|---|---|---|---|---|---|---|
| 1777910568 | 27.78° C | 99% | 1008 hPa | - | - | 0 W/m² | - |
| 1777909644 | 27.78° C | 99% | 1007 hPa | - | - | 0 W/m² | - |
| 1777908718 | 27.78° C | 99% | 1007 hPa | - | - | 0 W/m² | - |
| 1777907793 | 27.78° C | 99% | 1007 hPa | - | - | 0 W/m² | - |
| 1777906868 | 28.33° C | 99% | 1007 hPa | - | - | 0 W/m² | - |
| 1777905942 | 27.78° C | 99% | 1007 hPa | - | - | 0 W/m² | - |
| 1777905018 | 28.33° C | 99% | 1007 hPa | - | - | 0 W/m² | - |
| 1777904093 | 28.33° C | 99% | 1007 hPa | - | - | 0 W/m² | - |
| 1777903277 | 28.33° C | 99% | 1007 hPa | - | - | 0 W/m² | - |
| 1777902244 | 28.33° C | 99% | 1006 hPa | - | - | 0 W/m² | - |
| 1777901318 | 28.33° C | 99% | 1006 hPa | - | - | 0 W/m² | - |
| 1777900502 | 28.33° C | 99% | 1005 hPa | - | - | 0 W/m² | - |
| 1777900080 | 28.89° C | 99% | 1005 hPa | - | - | 0 W/m² | - |
| 1777898543 | 28.89° C | 97% | 1004 hPa | - | - | 0 W/m² | - |
| 1777897657 | 28.89° C | 95% | 1004 hPa | - | - | 0 W/m² | - |
| 1777897615 | 28.89° C | 95% | 1004 hPa | - | - | 0 W/m² | - |
| 1777896692 | 28.89° C | 95% | 1004 hPa | - | - | 0 W/m² | - |
| 1777895898 | 28.89° C | 97% | 1004 hPa | - | - | 0 W/m² | - |
| 1777894840 | 29.44° C | 96% | 1004 hPa | - | - | 0 W/m² | - |
| 1777893936 | 29.44° C | 93% | 1004 hPa | - | - | 0 W/m² | - |
| 1777893113 | 29.44° C | 94% | 1004 hPa | - | - | 0 W/m² | - |
| 1777892355 | 28.89° C | 98% | 1004 hPa | - | - | 0 W/m² | - |
| 1777891147 | 28.89° C | 95% | 1003 hPa | - | - | 0 W/m² | - |
| 1777889569 | 29.44° C | 96% | 1003 hPa | - | - | 0 W/m² | - |
| 1777889288 | 29.44° C | 96% | 1003 hPa | - | - | 0 W/m² | - |
* Rain since midnight (hover to see other rain measurements)
** Current wind speed in m/s (hover to see current wind gust speed)